CW9561 Weather Reports


Display with metric or nautical units.
time (UTC)temp
F
wind
direction
speed
MPH
gust
MPH
rain 1hr
in
rain 24hr
in
rain mn
in
humidity
%
barometer
mb
20260505011023 37 240 1.0 0.0 0.00 0.00 0.23 92 1012.9
20260505005036 38 240 1.0 0.0 0.00 0.00 0.20 90 1013.0
20260505004028 38 240 0.0 0.0 0.00 0.00 0.17 90 1013.1
20260505001030 40 314 2.0 0.0 0.00 0.00 0.13 86 1012.8
20260505000029 41 311 2.0 0.0 0.00 0.00 0.12 87 1013.1
20260504235028 42 195 1.0 0.0 0.00 0.00 0.12 89 1012.7
20260504234022 41 226 0.0 0.0 0.00 0.00 0.12 89 1012.5
20260504233038 41 223 0.0 0.0 0.00 0.00 0.11 88 1012.2
20260504232032 42 223 0.0 0.0 0.00 0.00 0.09 84 1012.3
20260504231027 45 223 1.0 0.0 0.00 0.00 0.05 78 1012.7
20260504230023 49 204 2.0 0.0 0.00 0.00 0.00 65 1012.5
20260504225040 52 269 1.0 0.0 0.00 0.00 0.00 54 1012.4
20260504224035 52 236 2.0 0.0 0.00 0.00 0.00 52 1012.1
20260504223031 52 292 3.0 0.0 0.00 0.00 0.00 52 1012.2
20260504222027 51 124 4.0 0.0 0.00 0.00 0.00 59 1012.1
20260504221022 51 126 1.0 0.0 0.00 0.00 0.00 59 1012.6
20260504220039 51 208 2.0 0.0 0.00 0.00 0.00 59 1012.7
20260504215033 49 191 2.0 0.0 0.00 0.00 0.00 60 1012.9
20260504214027 49 286 3.0 0.0 0.00 0.00 0.00 61 1013.2
20260504213027 49 237 2.0 0.0 0.00 0.00 0.00 60 1013.0
20260504212028 49 197 4.0 0.0 0.00 0.00 0.00 60 1013.0
20260504211021 50 244 2.0 0.0 0.00 0.00 0.00 60 1013.1
20260504205034 47 180 3.0 0.0 0.00 0.00 0.00 68 1012.9
20260504204034 47 166 3.0 0.0 0.00 0.00 0.00 65 1013.0
20260504203030 49 195 5.0 0.0 0.00 0.00 0.00 60 1013.2
20260504202030 52 200 2.0 0.0 0.00 0.00 0.00 48 1013.1
20260504201023 52 163 3.0 0.0 0.00 0.00 0.00 49 1013.1
20260504200023 50 163 1.0 0.0 0.00 0.00 0.00 50 1013.1
20260504195040 47 155 1.0 0.0 0.00 0.00 0.00 55 1013.3
20260504193037 50 218 3.0 0.0 0.00 0.00 0.00 54 1014.1
20260504192033 51 360 2.0 0.0 0.00 0.00 0.00 53 1013.7
20260504190031 52 337 4.0 0.0 0.00 0.00 0.00 54 1013.9
20260504185027 51 290 4.0 0.0 0.00 0.00 0.00 54 1014.0
20260504183022 51 349 1.0 0.0 0.00 0.00 0.00 55 1014.4
20260504182020 51 226 2.0 0.0 0.00 0.00 0.00 53 1014.4
20260504181035 51 257 1.0 0.0 0.00 0.00 0.00 56 1014.6
20260504180033 52 184 0.0 0.0 0.00 0.00 0.00 50 1014.6
20260504175030 52 284 1.0 0.0 0.00 0.00 0.00 49 1014.5
20260504174029 52 202 3.0 0.0 0.00 0.00 0.00 54 1014.7
20260504173029 52 238 2.0 0.0 0.00 0.00 0.00 51 1014.8
20260504172021 51 240 2.0 0.0 0.00 0.00 0.00 56 1015.0
20260504151032 44 182 3.0 0.0 0.00 0.00 0.00 63 1015.2
20260504141022 39 19 1.0 0.0 0.00 0.00 0.00 57 1015.6
20260504081029 37 259 0.0 0.0 0.00 0.00 0.00 49 1015.2
20260504045026 43 259 2.0 0.0 0.00 0.00 0.00 42 1016.4
20260504044039 43 259 3.0 0.0 0.00 0.00 0.00 42 1016.6
20260504042026 42 259 1.0 0.0 0.00 0.00 0.00 43 1016.4
20260504041026 42 259 1.0 0.0 0.00 0.00 0.00 43 1016.6
20260504035039 43 259 0.0 0.0 0.00 0.00 0.00 42 1016.6
20260504034031 44 259 0.0 0.0 0.00 0.00 0.00 41 1016.6
20260504033024 45 259 1.0 0.0 0.00 0.00 0.00 41 1016.5
20260504032037 45 259 1.0 0.0 0.00 0.00 0.00 42 1016.6
20260504031030 45 259 0.0 0.0 0.00 0.00 0.00 45 1017.2
20260504030022 45 259 0.0 0.0 0.00 0.00 0.00 46 1017.3
20260504025035 46 259 0.0 0.0 0.00 0.00 0.00 46 1017.0
20260504024028 47 259 0.0 0.0 0.00 0.00 0.00 45 1017.0
20260504023022 47 259 0.0 0.0 0.00 0.00 0.00 44 1016.9
20260504022020 48 259 0.0 0.0 0.00 0.00 0.00 42 1016.8
20260504021036 49 259 0.0 0.0 0.00 0.00 0.00 41 1016.7
20260504020030 50 259 0.0 0.0 0.00 0.00 0.00 40 1016.7
20260504015040 51 259 0.0 0.0 0.00 0.00 0.00 39 1016.5
20260504014031 51 259 0.0 0.0 0.00 0.00 0.00 38 1016.6
20260504013026 52 259 0.0 0.0 0.00 0.00 0.00 37 1016.4
20260504012040 53 259 0.0 0.0 0.00 0.00 0.00 34 1016.5